User: anonymous   Login
Location: Dos Palmas
(32.4468°N, 116.8732°W)
Time: 22:32:59
(UTC+00:00)
Language:

Cosmos 1805 Rocket - Orbit

View from above orbital plane
View from above orbital plane
View from above satellite
View from above satellite

Ground track
Ground track

The orbit data is extracted from the following two-line orbital elements,

1 17192U 86097B   21266.92962182  .00000114  00000-0  10901-4 0  9997
2 17192  82.5058 232.4232 0017084   5.1208  48.2119 14.83660873858848
Epoch (UTC): 23 September 2021 22:18:39
Eccentricity: 0.0017084
inclination: 82.5058°
perigee height: 606 km
apogee height: 630 km
right ascension of ascending node: 232.4232°
argument of perigee: 5.1208°
revolutions per day: 14.83660873
mean anomaly at epoch: 48.2119°
orbit number at epoch: 85884

The dashed part of the orbit path shows where the satellite is in the earth's shadow,  

DLR